AKDT,Max TemperatureF,Mean TemperatureF,Min TemperatureF,Max Dew PointF,MeanDew PointF,Min DewpointF,Max Humidity, Mean Humidity, Min Humidity, Max Sea Level PressureIn, Mean Sea Level PressureIn, Min Sea Level PressureIn, Max VisibilityMiles, Mean VisibilityMiles, Min VisibilityMiles, Max Wind SpeedMPH, Mean Wind SpeedMPH, Max Gust SpeedMPH,PrecipitationIn, CloudCover, Events, WindDirDegrees
2013-5-1,26,20,13,12,6,1,0,0,0,30.09,30.02,29.99,10,10,2,30,14,39,0.00,1,,8
2013-5-2,25,17,9,12,6,1,0,0,0,30.14,30.07,30.02,10,10,10,13,6,20,0.00,1,,316
2013-5-3,26,18,9,17,9,1,0,0,0,30.19,30.17,30.14,10,10,10,9,2,10,0.00,2,,274
2013-5-4,31,20,8,24,14,6,0,0,0,30.17,30.14,30.12,10,10,8,17,5,22,T,4,Snow,253
2013-5-5,28,26,23,25,21,18,0,0,0,30.25,30.21,30.16,10,10,7,16,9,18,T,8,Snow,238
2013-5-6,29,26,23,27,23,19,0,0,0,30.21,30.18,30.14,10,6,2,13,8,17,T,8,Snow,165
2013-5-7,30,29,27,28,26,24,0,0,0,30.25,30.20,30.17,10,5,1,15,9,17,0.05,8,Snow,212
2013-5-8,31,30,28,30,28,23,0,0,0,30.35,30.31,30.26,10,5,1,12,7,14,0.03,8,Snow,140
2013-5-9,33,31,28,30,28,27,0,0,0,30.36,30.34,30.29,10,5,0,7,4,12,0.00,8,Fog,161
2013-5-10,33,32,30,31,30,28,0,0,0,30.29,30.20,30.12,10,7,1,8,5,10,0.01,8,Snow,227
2013-5-11,34,31,28,30,28,27,0,0,0,30.12,30.06,29.93,10,6,0,13,5,15,T,7,Fog-Snow,252
2013-5-12,30,26,22,28,22,12,0,0,0,29.96,29.90,29.84,10,8,1,20,9,23,T,6,Snow,321
2013-5-13,28,23,18,17,14,10,0,0,0,29.95,29.92,29.89,10,10,10,17,10,21,0.00,3,,342
2013-5-14,25,17,8,21,13,4,0,0,0,29.90,29.81,29.68,10,9,3,15,5,16,T,6,Snow,252
2013-5-15,30,28,25,28,25,19,0,0,0,29.67,29.54,29.34,9,3,0,28,17,33,0.13,8,Fog-Snow,194
2013-5-16,27,20,13,28,13,8,0,0,0,29.70,29.53,29.33,10,7,2,25,15,30,T,7,Snow,284
2013-5-17,20,14,8,12,8,3,0,0,0,29.95,29.83,29.73,10,9,2,15,7,18,T,7,Snow,291
2013-5-18,31,21,11,29,22,4,0,0,0,30.07,29.98,29.94,10,6,1,21,14,24,0.01,8,Snow,187
2013-5-19,34,32,30,31,30,28,0,0,0,30.36,30.23,30.07,10,6,0,21,14,25,0.08,8,Fog-Rain-Snow,178
2013-5-20,34,33,31,34,31,28,0,0,0,30.36,30.27,30.07,10,4,1,24,18,30,0.27,8,Rain-Snow,128
2013-5-21,37,35,32,36,34,32,0,0,0,30.08,30.01,29.93,9,3,1,23,18,32,0.81,8,Rain-Snow,107
2013-5-22,38,36,34,37,35,34,0,0,0,29.94,29.89,29.86,10,7,1,22,15,28,0.33,8,Rain,98
2013-5-23,35,34,32,34,33,31,0,0,0,30.18,30.03,29.94,10,6,0,17,10,22,0.05,8,Fog-Rain-Snow,133
2013-5-24,37,35,32,34,32,30,0,0,0,30.19,30.16,30.06,10,7,1,10,6,13,0.02,8,Snow,110
2013-5-25,53,43,33,39,34,30,0,0,0,30.04,29.93,29.81,10,10,10,14,7,16,T,7,,2
2013-5-26,55,47,39,39,37,35,0,0,0,29.88,29.85,29.83,10,10,10,14,7,16,T,6,,274
2013-5-27,61,47,33,41,37,32,0,0,0,29.91,29.88,29.86,10,10,10,12,5,14,0.00,1,,292
2013-5-28,59,49,38,38,36,33,0,0,0,29.94,29.91,29.86,10,10,9,13,5,14,0.00,3,,291
2013-5-29,53,47,40,38,36,33,0,0,0,29.92,29.90,29.86,10,10,10,15,6,17,0.00,1,,282
2013-5-30,67,50,33,39,36,32,0,0,0,29.96,29.91,29.87,10,10,10,14,6,16,0.00,1,,279
2013-5-31,64,54,44,37,33,28,0,0,0,30.18,30.10,29.98,10,10,10,20,11,23,0.00,4,,9